Regional Weather Roundup
Issued by NWS

Home | Current Version | Previous Version | Text Only | Print | Product List | Glossary On
Versions: 1 2 3 4 5 6 7 8 9 10 11 12 13 14 15 16 17 18 19 20 21 22 23 24 25 26 27 28 29 30 31 32 33 34 35 36 37 38 39 40 41 42 43 44 45 46 47 48 49 50
000
ASUS43 KTOP 211008
RWRKS

WEATHER ROUNDUP FOR KANSAS
NATIONAL WEATHER SERVICE GOODLAND KS
400 AM CST SUN DEC 21 2014

NOTE:  "FAIR" INDICATES FEW OR NO CLOUDS BELOW 12,000 FEET WITH NO
SIGNIFICANT WEATHER AND/OR OBSTRUCTIONS TO VISIBILITY.

KSZ001>006-013>018-027>032-041>047-211100-
NORTHWEST KANSAS

CITY           SKY/WX    TMP DP  RH WIND       PRES   REMARKS
GOODLAND       MOCLDY    34  29  82 W8        29.86F
HAYS           CLOUDY    25  18  74 CALM      29.95F VSB<1/4
HILL CITY      PTCLDY    28  27  96 SW6       29.90F FOG
RUSSELL        FOG       35  35 100 SW14      29.94F VSB 3/4 WCI  26
$$

KSZ061>065-074>080-084>089-211100-
SOUTHWEST KANSAS

CITY           SKY/WX    TMP DP  RH WIND       PRES   REMARKS
DODGE CITY     FOG       37  35  92 S18       29.93F VSB 3/4 WCI  27
ELKHART          N/A    N/A N/A N/A MISG        N/A
GARDEN CITY      N/A     31  31 100 S9        29.89F VSB 1/4
GREAT BEND     CLOUDY    37  34  87 S13G18    29.97F WCI  29
LIBERAL        CLOUDY    34  28  80 S7        29.92F
PRATT          CLOUDY    37  37 100 S13       29.97F FOG     WCI  29
$$

KSZ066>073-081>083-090>101-211100-
SOUTHEAST KANSAS

CITY           SKY/WX    TMP DP  RH WIND       PRES   REMARKS
CHANUTE        CLOUDY    40  38  93 S10       30.09F WCI  33
COFFEYVILLE    CLOUDY    42  38  85 S13       30.11S
HUTCHINSON     CLOUDY    41  37  86 S18       30.00F
MEDICINE LODGE   N/A     39  39 100 S6        29.99F
NEWTON         CLOUDY    39  34  81 S14       30.02F WCI  31
PARSONS        CLOUDY    42  39  89 S8        30.11F
WICHITA INTL   CLOUDY    42  36  79 S13       30.02F
WICHITA JABRA  CLOUDY    40  36  86 S12       30.02F WCI  33
WICHITA MCCONL CLOUDY    40  37  86 S15       30.03F WCI  32
WINFIELD       CLOUDY    41  38  89 S9        30.06F
$$

KSZ007>012-019>026-033>040-048>060-102>105-211100-
NORTHEAST KANSAS

CITY           SKY/WX    TMP DP  RH WIND       PRES   REMARKS
CONCORDIA      MOCLDY    36  35  96 S13       29.95F WCI  27
EMPORIA        CLOUDY    37  36  96 S9        30.04F
LAWRENCE       CLOUDY    37  33  85 S7        30.08F
MANHATTAN      PTCLDY    37  34  89 S7        30.01F
MARYSVILLE     MOCLDY    37  37 100 S9        29.98F
OLATHE IND     CLOUDY    34  33  96 S6        30.09F
OLATHE EXE     CLOUDY    36  34  92 S8        30.09S FOG
SALINA         MOCLDY    37  35  92 S13       30.00S WCI  29
TOPEKA BILLARD CLOUDY   N/A N/A N/A S8        30.06F
TOPEKA FORBES  CLOUDY    38  34  85 SE7       30.05F
$$


USA.gov is the U.S. government's official web portal to all federal, state and local government web resources and services.